Location: Pianadetto
(44.4000°N, 10.1000°E)
Time: 23:24:04
(UTC+00:00)

CZ-4C R/B - Pass Details

Date: 26 May 2022
Orbit: 581 x 1419 km, 63.4° (Epoch: 02 July)

Event Time Altitude Azimuth Distance (km) Brightness Sun altitude
Rises 00:15:14 0° 319° (NW) 3,901 6.1 -23.2°
Reaches altitude 10° 00:17:48 10° 314° (NW) 3,052 5.4 -23.0°
Maximum altitude 00:25:01 53° 241° (WSW) 1,563 3.2 -22.7°
Enters shadow 00:28:02 37° 190° (S) 1,966 3.5 -22.5°
